29.03.2024;11:15;13,50
29.03.2024;11:00;13,40
29.03.2024;10:45;13,30
29.03.2024;10:30;13,30
29.03.2024;10:15;13,30
29.03.2024;10:00;13,30
29.03.2024;09:45;13,20
29.03.2024;09:30;13,20
29.03.2024;09:15;13,20
29.03.2024;09:00;13,10
29.03.2024;08:45;13,10
29.03.2024;08:30;13,00
29.03.2024;08:15;13,00
29.03.2024;08:00;13,00
29.03.2024;07:45;13,00
29.03.2024;07:30;13,00
29.03.2024;07:15;13,00
29.03.2024;07:00;13,00
29.03.2024;06:45;13,00
29.03.2024;06:30;13,00
29.03.2024;06:15;13,00
29.03.2024;06:00;13,00
29.03.2024;05:45;13,00
29.03.2024;05:30;13,00
29.03.2024;05:15;13,00
29.03.2024;05:00;13,00
29.03.2024;04:45;13,00
29.03.2024;04:30;13,00
29.03.2024;04:15;13,00
29.03.2024;04:00;13,00
29.03.2024;03:45;13,00
29.03.2024;03:30;13,00
29.03.2024;03:15;13,00
29.03.2024;03:00;13,00
29.03.2024;02:45;13,00
29.03.2024;02:30;13,00
29.03.2024;02:15;13,00
29.03.2024;02:00;13,00
29.03.2024;01:45;13,00
29.03.2024;01:30;13,00
29.03.2024;01:15;13,00
29.03.2024;01:00;13,10
29.03.2024;00:45;13,10
29.03.2024;00:30;13,10
29.03.2024;00:15;13,10
29.03.2024;00:00;13,10
28.03.2024;23:45;13,10
28.03.2024;23:30;13,10
28.03.2024;23:15;13,10
28.03.2024;23:00;13,10
28.03.2024;22:45;13,10
28.03.2024;22:30;13,10
28.03.2024;22:15;13,10
28.03.2024;22:00;13,10
28.03.2024;21:45;13,10
28.03.2024;21:30;13,10
28.03.2024;21:15;13,10
28.03.2024;21:00;13,10
28.03.2024;20:45;13,10
28.03.2024;20:30;13,10
28.03.2024;20:15;13,20
28.03.2024;20:00;13,20
28.03.2024;19:45;13,20
28.03.2024;19:30;13,20
28.03.2024;19:15;13,20
28.03.2024;19:00;13,30
28.03.2024;18:45;13,40
28.03.2024;18:30;13,50
28.03.2024;18:15;13,60
28.03.2024;18:00;13,70
28.03.2024;17:45;13,80
28.03.2024;17:30;13,90
28.03.2024;17:15;14,00
28.03.2024;17:00;14,00
28.03.2024;16:45;14,00
28.03.2024;16:30;14,00
28.03.2024;16:15;14,00
28.03.2024;16:00;14,00
28.03.2024;15:45;14,00
28.03.2024;15:30;14,00
28.03.2024;15:15;14,00
28.03.2024;15:00;14,00
28.03.2024;14:45;14,00
28.03.2024;14:30;14,00
28.03.2024;14:15;14,00
28.03.2024;14:00;14,00
28.03.2024;13:45;14,10
28.03.2024;13:30;14,00
28.03.2024;13:15;14,00
28.03.2024;13:00;14,00
28.03.2024;12:45;14,00
28.03.2024;12:30;14,00
28.03.2024;12:15;14,00
28.03.2024;12:00;14,00
28.03.2024;11:45;14,10
28.03.2024;11:30;14,10
28.03.2024;11:15;14,10
28.03.2024;11:00;14,60
28.03.2024;10:45;14,60
28.03.2024;10:30;14,60
28.03.2024;10:15;14,60
28.03.2024;10:00;14,70
28.03.2024;09:45;14,60
28.03.2024;09:30;13,80
28.03.2024;09:15;14,70
28.03.2024;09:00;14,60
28.03.2024;08:45;14,10
28.03.2024;08:30;13,50
28.03.2024;08:15;13,40
28.03.2024;08:00;13,30
28.03.2024;07:45;13,20
28.03.2024;07:30;13,10
28.03.2024;07:15;13,00
28.03.2024;07:00;13,00
28.03.2024;06:45;13,00
28.03.2024;06:30;13,00
28.03.2024;06:15;13,00
28.03.2024;06:00;13,00
28.03.2024;05:45;13,00
28.03.2024;05:30;13,00
28.03.2024;05:15;13,00
28.03.2024;05:00;13,00
28.03.2024;04:45;13,00
28.03.2024;04:30;13,00
28.03.2024;04:15;13,00
28.03.2024;04:00;13,00
28.03.2024;03:45;13,00
28.03.2024;03:30;13,00
28.03.2024;03:15;13,00
28.03.2024;03:00;13,00
28.03.2024;02:45;13,00
28.03.2024;02:30;13,00
28.03.2024;02:15;13,00
28.03.2024;02:00;13,00
28.03.2024;01:45;13,00
28.03.2024;01:30;13,00
28.03.2024;01:15;13,00
28.03.2024;01:00;13,00
28.03.2024;00:45;13,00
28.03.2024;00:30;13,00
28.03.2024;00:15;13,10
28.03.2024;00:00;13,10
27.03.2024;23:45;13,10
27.03.2024;23:30;13,10
27.03.2024;23:15;13,10
27.03.2024;23:00;13,10
27.03.2024;22:45;13,10
27.03.2024;22:30;13,10
27.03.2024;22:15;13,10
27.03.2024;22:00;13,10
27.03.2024;21:45;13,10
27.03.2024;21:30;13,10
27.03.2024;21:15;13,10
27.03.2024;21:00;13,10
27.03.2024;20:45;13,10
27.03.2024;20:30;13,10
27.03.2024;20:15;13,10
27.03.2024;20:00;13,10
27.03.2024;19:45;13,10
27.03.2024;19:30;13,10
27.03.2024;19:15;13,10
27.03.2024;19:00;13,20
27.03.2024;18:45;13,20
27.03.2024;18:30;13,30
27.03.2024;18:15;13,30
27.03.2024;18:00;13,40
27.03.2024;17:45;13,40
27.03.2024;17:30;13,50
27.03.2024;17:15;13,60
27.03.2024;17:00;13,60
27.03.2024;16:45;13,70
27.03.2024;16:30;13,70
27.03.2024;16:15;13,80
27.03.2024;16:00;13,90
27.03.2024;15:45;14,00
27.03.2024;15:30;13,90
27.03.2024;15:15;14,00
27.03.2024;15:00;13,90
27.03.2024;14:45;13,90
27.03.2024;14:30;14,10
27.03.2024;14:15;14,00
27.03.2024;14:00;14,10
27.03.2024;13:45;14,10
27.03.2024;13:30;14,20
27.03.2024;13:15;14,00
27.03.2024;13:00;14,20
27.03.2024;12:45;14,20
27.03.2024;12:30;14,20
27.03.2024;12:15;14,20
27.03.2024;12:00;13,90
27.03.2024;11:45;14,10
27.03.2024;11:30;14,20
27.03.2024;11:15;14,50
27.03.2024;11:00;14,60
27.03.2024;10:45;14,00
27.03.2024;10:30;14,00
27.03.2024;10:15;13,90
27.03.2024;10:00;14,50
27.03.2024;09:45;13,70
27.03.2024;09:30;13,50
27.03.2024;09:15;13,40
27.03.2024;09:00;13,40
27.03.2024;08:45;13,30
27.03.2024;08:30;13,20
27.03.2024;08:15;13,20
27.03.2024;08:00;13,10
27.03.2024;07:45;13,10
27.03.2024;07:30;13,10
27.03.2024;07:15;13,00
27.03.2024;07:00;13,00
27.03.2024;06:45;13,00
27.03.2024;06:30;13,00
27.03.2024;06:15;13,00
27.03.2024;06:00;13,00
27.03.2024;05:45;13,00
27.03.2024;05:30;13,00
27.03.2024;05:15;13,00
27.03.2024;05:00;13,00
27.03.2024;04:45;13,00
27.03.2024;04:30;13,00
27.03.2024;04:15;13,00
27.03.2024;04:00;13,00
27.03.2024;03:45;13,00
27.03.2024;03:30;13,00
27.03.2024;03:15;13,00
27.03.2024;03:00;13,00
27.03.2024;02:45;13,00
27.03.2024;02:30;13,00
27.03.2024;02:15;13,00
27.03.2024;02:00;13,00
27.03.2024;01:45;13,00
27.03.2024;01:30;13,00
27.03.2024;01:15;13,00
27.03.2024;01:00;13,10
27.03.2024;00:45;13,10
27.03.2024;00:30;13,10
27.03.2024;00:15;13,10
27.03.2024;00:00;13,10
26.03.2024;23:45;13,10
26.03.2024;23:30;13,10
26.03.2024;23:15;13,10
26.03.2024;23:00;13,10
26.03.2024;22:45;13,10
26.03.2024;22:30;13,10
26.03.2024;22:15;13,10
26.03.2024;22:00;13,10
26.03.2024;21:45;13,10
26.03.2024;21:30;13,10
26.03.2024;21:15;13,10
26.03.2024;21:00;13,10
26.03.2024;20:45;13,10
26.03.2024;20:30;13,10
26.03.2024;20:15;13,20
26.03.2024;20:00;13,20
26.03.2024;19:45;13,20
26.03.2024;19:30;13,20
26.03.2024;19:15;13,20
26.03.2024;19:00;13,30
26.03.2024;18:45;13,40
26.03.2024;18:30;13,50
26.03.2024;18:15;13,60
26.03.2024;18:00;13,70
26.03.2024;17:45;13,80
26.03.2024;17:30;13,80
26.03.2024;17:15;14,00
26.03.2024;17:00;14,00
26.03.2024;16:45;14,20
26.03.2024;16:30;14,10
26.03.2024;16:15;14,10
26.03.2024;16:00;14,20
26.03.2024;15:45;14,20
26.03.2024;15:30;14,20
26.03.2024;15:15;14,20
26.03.2024;15:00;14,30
26.03.2024;14:45;14,20
26.03.2024;14:30;14,20
26.03.2024;14:15;14,20
26.03.2024;14:00;14,20
26.03.2024;13:45;14,20
26.03.2024;13:30;14,20
16.03.2024;02:15;13,00
16.03.2024;02:00;13,00
16.03.2024;01:45;13,00
16.03.2024;01:30;13,00
16.03.2024;01:15;13,00
16.03.2024;01:00;13,00
16.03.2024;00:45;13,00
16.03.2024;00:30;13,00
16.03.2024;00:15;13,00
16.03.2024;00:00;13,00
15.03.2024;23:45;13,00
15.03.2024;23:30;13,00
15.03.2024;23:15;13,00
15.03.2024;23:00;13,00
15.03.2024;22:45;13,00
15.03.2024;22:30;13,00
15.03.2024;22:15;13,10
15.03.2024;22:00;13,10
15.03.2024;21:45;13,10
15.03.2024;21:30;13,10
15.03.2024;21:15;13,10
15.03.2024;21:00;13,10
15.03.2024;20:45;13,10
15.03.2024;20:30;13,10
15.03.2024;20:15;13,20
15.03.2024;20:00;13,20
15.03.2024;19:45;13,20
15.03.2024;19:30;13,20
15.03.2024;19:15;13,30
15.03.2024;19:00;13,30
15.03.2024;18:45;13,40
15.03.2024;18:30;13,40
15.03.2024;18:15;13,50
15.03.2024;18:00;13,50
15.03.2024;17:45;13,60
15.03.2024;17:30;13,70
15.03.2024;17:15;13,80
15.03.2024;17:00;13,90
15.03.2024;16:45;14,00
15.03.2024;16:30;14,10
15.03.2024;16:15;14,10
15.03.2024;16:00;14,20
15.03.2024;15:45;14,20
15.03.2024;15:30;14,10
15.03.2024;15:15;14,20
15.03.2024;15:00;14,20
15.03.2024;14:45;14,10
15.03.2024;14:30;14,20
15.03.2024;14:15;14,10
15.03.2024;14:00;14,10
15.03.2024;13:45;14,20
15.03.2024;13:30;14,20
15.03.2024;13:15;14,10
15.03.2024;13:00;14,10
15.03.2024;12:45;14,20
15.03.2024;12:30;14,20
15.03.2024;12:15;14,20
15.03.2024;12:00;14,20
15.03.2024;11:45;14,20
15.03.2024;11:30;14,20
15.03.2024;11:15;14,60
15.03.2024;11:00;14,60
15.03.2024;10:45;14,00
15.03.2024;10:30;13,70
15.03.2024;10:15;13,50
15.03.2024;10:00;13,30
15.03.2024;09:45;13,30
14.03.2024;19:15;13,10
14.03.2024;19:00;13,10
14.03.2024;18:45;13,10
14.03.2024;18:30;13,10
14.03.2024;18:15;13,10
14.03.2024;18:00;13,20
14.03.2024;17:45;13,20
14.03.2024;17:30;13,20
14.03.2024;17:15;13,30
14.03.2024;17:00;13,30
14.03.2024;16:45;13,40
14.03.2024;16:30;13,40
14.03.2024;16:15;13,40
14.03.2024;16:00;13,40
14.03.2024;15:45;13,50
14.03.2024;15:30;13,50
14.03.2024;15:15;13,50
14.03.2024;15:00;13,60
14.03.2024;14:45;13,50
14.03.2024;14:30;13,60
14.03.2024;14:15;13,60
14.03.2024;14:00;13,60
14.03.2024;13:45;13,50
14.03.2024;13:30;13,50
14.03.2024;13:15;13,50
14.03.2024;13:00;13,40
14.03.2024;12:45;13,40
14.03.2024;12:30;13,40
14.03.2024;12:15;13,30
14.03.2024;12:00;13,30
14.03.2024;11:45;13,30
14.03.2024;11:30;13,20
14.03.2024;11:15;13,30
14.03.2024;11:00;13,20
14.03.2024;10:45;13,20
14.03.2024;10:30;13,20
14.03.2024;10:15;13,20
14.03.2024;10:00;13,10
14.03.2024;09:45;13,10
14.03.2024;09:30;13,10
14.03.2024;09:15;13,10
14.03.2024;09:00;13,10
14.03.2024;08:45;13,10
14.03.2024;08:30;13,00
14.03.2024;08:15;13,00
14.03.2024;08:00;13,00
14.03.2024;07:45;13,00
14.03.2024;07:30;12,90
14.03.2024;07:15;12,90
14.03.2024;07:00;12,90
14.03.2024;06:45;12,90
14.03.2024;06:30;12,90
14.03.2024;06:15;12,90
14.03.2024;06:00;12,90
14.03.2024;05:45;12,90
14.03.2024;05:30;12,90
14.03.2024;05:15;12,90
14.03.2024;05:00;12,90
14.03.2024;04:45;12,90
14.03.2024;04:30;12,90
14.03.2024;04:15;12,90
14.03.2024;04:00;12,90
14.03.2024;03:45;12,90
14.03.2024;03:30;12,90
14.03.2024;03:15;13,00
14.03.2024;03:00;13,00
14.03.2024;02:45;13,00
14.03.2024;02:30;12,90
14.03.2024;02:15;13,00
14.03.2024;02:00;13,00
14.03.2024;01:45;13,00
14.03.2024;01:30;13,00
14.03.2024;01:15;13,00
14.03.2024;01:00;13,00
14.03.2024;00:45;13,00
14.03.2024;00:30;13,00
14.03.2024;00:15;13,00
14.03.2024;00:00;13,00
13.03.2024;23:45;13,00
13.03.2024;23:30;13,00
13.03.2024;23:15;13,00
13.03.2024;23:00;13,00
13.03.2024;22:45;13,00
13.03.2024;22:30;13,00
13.03.2024;22:15;13,00
13.03.2024;22:00;13,00
13.03.2024;21:45;13,00
13.03.2024;21:30;13,00
13.03.2024;21:15;13,10
13.03.2024;21:00;13,10
13.03.2024;20:45;13,10
13.03.2024;20:30;13,10
13.03.2024;20:15;13,20
13.03.2024;20:00;13,20
13.03.2024;19:45;13,20
13.03.2024;19:30;13,20
13.03.2024;19:15;13,30
13.03.2024;19:00;13,30
13.03.2024;18:45;13,30
13.03.2024;18:30;13,40
13.03.2024;18:15;13,40
13.03.2024;18:00;13,50
13.03.2024;17:45;13,50
13.03.2024;17:30;13,60
13.03.2024;17:15;13,60
13.03.2024;17:00;13,70
13.03.2024;16:45;13,70
13.03.2024;16:30;13,80
13.03.2024;16:15;13,90
13.03.2024;16:00;13,90
13.03.2024;15:45;13,90
13.03.2024;15:30;14,00
13.03.2024;15:15;14,10
13.03.2024;15:00;14,00
13.03.2024;14:45;14,00
13.03.2024;14:30;14,10
13.03.2024;14:15;14,10
13.03.2024;14:00;14,10
13.03.2024;13:45;14,10
13.03.2024;13:30;14,10
13.03.2024;13:15;14,30
13.03.2024;13:00;14,30
13.03.2024;12:45;14,20
13.03.2024;12:30;14,20
13.03.2024;12:15;14,30
13.03.2024;12:00;14,30
13.03.2024;11:45;14,20
13.03.2024;11:30;13,80
13.03.2024;11:15;14,20
13.03.2024;11:00;14,40
13.03.2024;10:45;14,60
13.03.2024;10:30;14,60
13.03.2024;10:15;13,80
13.03.2024;10:00;13,40
13.03.2024;09:45;13,20
13.03.2024;09:30;13,10
13.03.2024;09:15;13,20
13.03.2024;09:00;13,10
13.03.2024;08:45;13,10
13.03.2024;08:30;13,10
13.03.2024;08:15;13,00
13.03.2024;08:00;13,00
13.03.2024;07:45;13,00
13.03.2024;07:30;12,90
13.03.2024;07:15;12,90
13.03.2024;07:00;12,90
13.03.2024;06:45;12,90
13.03.2024;06:30;12,90
13.03.2024;06:15;12,90
13.03.2024;06:00;12,90
13.03.2024;05:45;12,90
13.03.2024;05:30;12,90
13.03.2024;05:15;12,90
13.03.2024;05:00;12,90
13.03.2024;04:45;12,90
13.03.2024;04:30;12,90
13.03.2024;04:15;13,00
13.03.2024;04:00;13,00
13.03.2024;03:45;13,00
13.03.2024;03:30;12,90
13.03.2024;03:15;13,00
13.03.2024;03:00;13,00
13.03.2024;02:45;13,00
13.03.2024;02:30;13,00
13.03.2024;02:15;13,00
13.03.2024;02:00;13,00
13.03.2024;01:45;13,00
13.03.2024;01:30;13,00
13.03.2024;01:15;13,00
13.03.2024;01:00;13,00
13.03.2024;00:45;13,00
13.03.2024;00:30;13,00
13.03.2024;00:15;13,00
13.03.2024;00:00;13,00
12.03.2024;23:45;13,00
12.03.2024;23:30;13,00
12.03.2024;23:15;13,10
12.03.2024;23:00;13,10
12.03.2024;22:45;13,10
12.03.2024;22:30;13,10
12.03.2024;22:15;13,10
12.03.2024;22:00;13,10
12.03.2024;21:45;13,10
12.03.2024;21:30;13,10
12.03.2024;21:15;13,20
12.03.2024;21:00;13,20
12.03.2024;20:45;13,20
12.03.2024;20:30;13,30
12.03.2024;20:15;13,30
12.03.2024;20:00;13,30
12.03.2024;19:45;13,40
12.03.2024;19:30;13,40
12.03.2024;19:15;13,50
12.03.2024;19:00;13,50
12.03.2024;18:45;13,60
12.03.2024;18:30;13,70
12.03.2024;18:15;13,80
12.03.2024;18:00;13,90
12.03.2024;17:45;14,00
12.03.2024;17:30;14,00
12.03.2024;17:15;14,00
12.03.2024;17:00;14,20
12.03.2024;16:45;14,20
12.03.2024;16:30;14,20
12.03.2024;16:15;14,20
12.03.2024;16:00;14,20
12.03.2024;15:45;14,20
12.03.2024;15:30;14,20
12.03.2024;15:15;14,20
12.03.2024;15:00;14,20
12.03.2024;14:45;14,20
12.03.2024;14:30;14,20
12.03.2024;14:15;14,20
12.03.2024;14:00;14,20
12.03.2024;13:45;14,20
12.03.2024;13:30;14,20
12.03.2024;13:15;14,20
12.03.2024;13:00;14,20
12.03.2024;12:45;14,20
12.03.2024;12:30;14,20
12.03.2024;12:15;14,20
12.03.2024;12:00;14,20
12.03.2024;11:45;14,20
12.03.2024;11:30;14,30
12.03.2024;11:15;14,30
12.03.2024;11:00;14,30
12.03.2024;10:45;14,40
12.03.2024;10:30;14,50
12.03.2024;10:15;14,40
12.03.2024;10:00;14,40
12.03.2024;09:45;14,40
12.03.2024;09:30;14,40
12.03.2024;09:15;14,00
12.03.2024;09:00;14,40
12.03.2024;08:45;14,60
12.03.2024;08:30;14,60
12.03.2024;08:15;13,20
12.03.2024;08:00;13,00
12.03.2024;07:45;13,00
12.03.2024;07:30;12,90
12.03.2024;07:15;12,90
12.03.2024;07:00;12,90
12.03.2024;06:45;12,90
12.03.2024;06:30;12,90
12.03.2024;06:15;12,90
12.03.2024;06:00;12,90
12.03.2024;05:45;12,90
12.03.2024;05:30;12,90
12.03.2024;05:15;12,90
12.03.2024;05:00;12,90
12.03.2024;04:45;12,90
12.03.2024;04:30;12,90
12.03.2024;04:15;13,00
12.03.2024;04:00;13,00
12.03.2024;03:45;13,00
12.03.2024;03:30;12,90
12.03.2024;03:15;13,00
12.03.2024;03:00;13,00
12.03.2024;02:45;13,00
12.03.2024;02:30;13,00
12.03.2024;02:15;13,00
12.03.2024;02:00;13,00
12.03.2024;01:45;13,00
12.03.2024;01:30;13,00
12.03.2024;01:15;13,00
12.03.2024;01:00;13,00
12.03.2024;00:45;13,00
12.03.2024;00:30;13,00
12.03.2024;00:15;13,00
12.03.2024;00:00;13,00
11.03.2024;23:45;13,00
11.03.2024;23:30;13,00
11.03.2024;23:15;13,10
11.03.2024;23:00;13,10
11.03.2024;22:45;13,10
11.03.2024;22:30;13,10
11.03.2024;22:15;13,10
11.03.2024;22:00;13,10
11.03.2024;21:45;13,10
11.03.2024;21:30;13,10
11.03.2024;21:15;13,20
11.03.2024;21:00;13,20
11.03.2024;20:45;13,20
11.03.2024;20:30;13,30
11.03.2024;20:15;13,30
11.03.2024;20:00;13,40
11.03.2024;19:45;13,40
11.03.2024;19:30;13,50
11.03.2024;19:15;13,50
11.03.2024;19:00;13,60
11.03.2024;18:45;13,60
11.03.2024;18:30;13,70
11.03.2024;18:15;13,80
11.03.2024;18:00;13,90
11.03.2024;17:45;14,00
11.03.2024;17:30;14,10
11.03.2024;17:15;14,20
11.03.2024;17:00;14,20
11.03.2024;16:45;14,20
11.03.2024;16:30;14,20
11.03.2024;16:15;14,20
11.03.2024;16:00;14,20
11.03.2024;15:45;14,20
11.03.2024;15:30;14,20
11.03.2024;15:15;14,20
11.03.2024;15:00;14,20
11.03.2024;14:45;14,20
11.03.2024;14:30;14,20
11.03.2024;14:15;14,20
11.03.2024;14:00;14,20
11.03.2024;13:45;14,20
11.03.2024;13:30;14,20
11.03.2024;13:15;14,20
11.03.2024;13:00;14,30
11.03.2024;12:45;14,30
11.03.2024;12:30;14,30
11.03.2024;12:15;14,40
11.03.2024;12:00;14,40
11.03.2024;11:45;14,40
11.03.2024;11:30;14,40
11.03.2024;11:15;14,50
11.03.2024;11:00;14,40
11.03.2024;10:45;14,40
11.03.2024;10:30;14,40
11.03.2024;10:15;14,40
11.03.2024;10:00;14,50
11.03.2024;09:45;14,50
11.03.2024;09:30;14,30
11.03.2024;09:15;14,40
11.03.2024;09:00;14,60
11.03.2024;08:45;14,70
11.03.2024;08:30;13,30
11.03.2024;08:15;13,10
11.03.2024;08:00;13,00
11.03.2024;07:45;13,00
11.03.2024;07:30;12,90
11.03.2024;07:15;12,90
11.03.2024;07:00;12,90
11.03.2024;06:45;12,90
11.03.2024;06:30;12,90
11.03.2024;06:15;12,90
11.03.2024;06:00;12,90
11.03.2024;05:45;12,90
11.03.2024;05:30;12,90
11.03.2024;05:15;12,90
11.03.2024;05:00;12,90
11.03.2024;04:45;12,90
11.03.2024;04:30;12,90
11.03.2024;04:15;13,00
11.03.2024;04:00;13,00
11.03.2024;03:45;13,00
11.03.2024;03:30;12,90
11.03.2024;03:15;13,00
11.03.2024;03:00;13,00
11.03.2024;02:45;13,00
11.03.2024;02:30;13,00
11.03.2024;02:15;13,00
11.03.2024;02:00;13,00
11.03.2024;01:45;13,00
11.03.2024;01:30;13,00
11.03.2024;01:15;13,00
11.03.2024;01:00;13,00
11.03.2024;00:45;13,00
11.03.2024;00:30;13,00
11.03.2024;00:15;13,00
11.03.2024;00:00;13,00
10.03.2024;23:45;13,00
10.03.2024;23:30;13,00
10.03.2024;23:15;13,10
10.03.2024;23:00;13,10
10.03.2024;22:45;13,10
10.03.2024;22:30;13,10
10.03.2024;22:15;13,10
10.03.2024;22:00;13,10
10.03.2024;21:45;13,10
10.03.2024;21:30;13,10
10.03.2024;21:15;13,10
10.03.2024;21:00;13,20
10.03.2024;20:45;13,20
10.03.2024;20:30;13,20
10.03.2024;20:15;13,20
10.03.2024;20:00;13,30
10.03.2024;19:45;13,30
10.03.2024;19:30;13,30
10.03.2024;19:15;13,40
10.03.2024;19:00;13,40
10.03.2024;18:45;13,50
10.03.2024;18:30;13,60
10.03.2024;18:15;13,60
10.03.2024;18:00;13,70
10.03.2024;17:45;13,80
10.03.2024;17:30;13,80
10.03.2024;17:15;13,90
10.03.2024;17:00;14,00
10.03.2024;16:45;14,10
10.03.2024;16:30;14,10
10.03.2024;16:15;14,20
10.03.2024;16:00;14,20
10.03.2024;15:45;14,20
10.03.2024;15:30;14,20
10.03.2024;15:15;14,20
10.03.2024;15:00;14,20
10.03.2024;14:45;14,20
10.03.2024;14:30;14,20
10.03.2024;14:15;14,20
10.03.2024;14:00;14,20
10.03.2024;13:45;14,20
10.03.2024;13:30;14,30
10.03.2024;13:15;14,30
10.03.2024;13:00;14,30
10.03.2024;12:45;14,30
10.03.2024;12:30;14,30
10.03.2024;12:15;14,30
10.03.2024;12:00;14,30
10.03.2024;11:45;14,30
10.03.2024;11:30;14,40
10.03.2024;11:15;14,40
10.03.2024;11:00;14,40
10.03.2024;10:45;14,40
10.03.2024;10:30;14,30
10.03.2024;10:15;14,30
10.03.2024;10:00;14,40
10.03.2024;09:45;14,30
10.03.2024;09:30;14,30
10.03.2024;09:15;14,30
10.03.2024;09:00;14,60
10.03.2024;08:45;14,60
10.03.2024;08:30;13,30
10.03.2024;08:15;13,10
10.03.2024;08:00;13,00
10.03.2024;07:45;13,00
10.03.2024;07:30;12,90
10.03.2024;07:15;12,90
10.03.2024;07:00;12,90
10.03.2024;06:45;12,90
10.03.2024;06:30;12,90
10.03.2024;06:15;12,90
10.03.2024;06:00;12,90
10.03.2024;05:45;12,90
10.03.2024;05:30;12,90
10.03.2024;05:15;12,90
10.03.2024;05:00;12,90
10.03.2024;04:45;12,90
10.03.2024;04:30;12,90
10.03.2024;04:15;12,90
10.03.2024;04:00;12,90
10.03.2024;03:45;12,90
10.03.2024;03:30;12,90
10.03.2024;03:15;13,00
10.03.2024;03:00;13,00
10.03.2024;02:45;13,00
10.03.2024;02:30;13,00
10.03.2024;02:15;13,00
10.03.2024;02:00;13,00
10.03.2024;01:45;13,00
10.03.2024;01:30;13,00
10.03.2024;01:15;13,00
10.03.2024;01:00;13,00
10.03.2024;00:45;13,00
10.03.2024;00:30;13,00
10.03.2024;00:15;13,00
10.03.2024;00:00;13,00
09.03.2024;23:45;13,00
09.03.2024;23:30;13,00
09.03.2024;23:15;13,00
09.03.2024;23:00;13,00
09.03.2024;22:45;13,00
09.03.2024;22:30;13,00
09.03.2024;22:15;13,10
09.03.2024;22:00;13,10
09.03.2024;21:45;13,10
09.03.2024;21:30;13,10
09.03.2024;21:15;13,10
09.03.2024;21:00;13,10
09.03.2024;20:45;13,20
09.03.2024;20:30;13,20
09.03.2024;20:15;13,20
09.03.2024;20:00;13,20
09.03.2024;19:45;13,30
09.03.2024;19:30;13,30
09.03.2024;19:15;13,40
09.03.2024;19:00;13,40
09.03.2024;18:45;13,50
09.03.2024;18:30;13,50
09.03.2024;18:15;13,60
09.03.2024;18:00;13,70
09.03.2024;17:45;13,80
09.03.2024;17:30;13,80
09.03.2024;17:15;13,90
09.03.2024;17:00;13,90
09.03.2024;16:45;13,90
09.03.2024;16:30;14,00
09.03.2024;16:15;14,10
09.03.2024;16:00;14,10
09.03.2024;15:45;14,60
09.03.2024;15:30;14,70
09.03.2024;15:15;14,20
09.03.2024;15:00;14,20
09.03.2024;14:45;14,10
09.03.2024;14:30;14,20
09.03.2024;14:15;14,20
09.03.2024;14:00;14,20
09.03.2024;13:45;14,20
09.03.2024;13:30;14,20
09.03.2024;13:15;14,40
09.03.2024;13:00;14,50
09.03.2024;12:45;14,00
09.03.2024;12:30;13,90
09.03.2024;12:15;13,90
09.03.2024;12:00;13,80
09.03.2024;11:45;13,80
09.03.2024;11:30;13,60
09.03.2024;11:15;13,60
09.03.2024;11:00;13,50
09.03.2024;10:45;13,40
09.03.2024;10:30;13,30
09.03.2024;10:15;13,20
09.03.2024;10:00;13,20
09.03.2024;09:45;13,10
09.03.2024;09:30;13,10
09.03.2024;09:15;13,10
09.03.2024;09:00;13,00
09.03.2024;08:45;13,00
09.03.2024;08:30;13,00
09.03.2024;08:15;13,00
09.03.2024;08:00;13,00
09.03.2024;07:45;12,90
09.03.2024;07:30;12,90
09.03.2024;07:15;12,90
09.03.2024;07:00;12,90
09.03.2024;06:45;12,90
09.03.2024;06:30;12,90
09.03.2024;06:15;12,90
09.03.2024;06:00;12,90
09.03.2024;05:45;12,90
09.03.2024;05:30;12,90
09.03.2024;05:15;13,00
09.03.2024;05:00;13,00
09.03.2024;04:45;13,00
09.03.2024;04:30;12,90
09.03.2024;04:15;13,00
09.03.2024;04:00;13,00
09.03.2024;03:45;13,00
09.03.2024;03:30;12,90
09.03.2024;03:15;13,00
09.03.2024;03:00;13,00
09.03.2024;02:45;13,00
09.03.2024;02:30;13,00
09.03.2024;02:15;13,00
09.03.2024;02:00;13,00
09.03.2024;01:45;13,00
09.03.2024;01:30;13,00
09.03.2024;01:15;13,00
09.03.2024;01:00;13,00
09.03.2024;00:45;13,00
09.03.2024;00:30;13,00
09.03.2024;00:15;13,00
09.03.2024;00:00;13,00
08.03.2024;23:45;13,00
08.03.2024;23:30;13,00
08.03.2024;23:15;13,00
08.03.2024;23:00;13,00
08.03.2024;22:45;13,00
08.03.2024;22:30;13,00
08.03.2024;22:15;13,00
08.03.2024;22:00;13,10
08.03.2024;21:45;13,10
08.03.2024;21:30;13,00
08.03.2024;21:15;13,10
08.03.2024;21:00;13,10
08.03.2024;20:45;13,10
08.03.2024;20:30;13,10
08.03.2024;20:15;13,10
08.03.2024;20:00;13,10
08.03.2024;19:45;13,20
08.03.2024;19:30;13,20
08.03.2024;19:15;13,20
08.03.2024;19:00;13,20
08.03.2024;18:45;13,30
08.03.2024;18:30;13,30
08.03.2024;18:15;13,40
08.03.2024;18:00;13,40
08.03.2024;17:45;13,50
08.03.2024;17:30;13,50
08.03.2024;17:15;13,60
08.03.2024;17:00;13,70
08.03.2024;16:45;13,70
08.03.2024;16:30;13,80
08.03.2024;16:15;13,90
08.03.2024;16:00;13,90
08.03.2024;15:45;14,00
08.03.2024;15:30;14,00
08.03.2024;15:15;14,10
08.03.2024;15:00;14,20
08.03.2024;14:45;14,20
08.03.2024;14:30;14,30
08.03.2024;14:15;14,30
08.03.2024;14:00;14,30
08.03.2024;13:45;14,30
08.03.2024;13:30;14,20
08.03.2024;13:15;14,20
08.03.2024;13:00;14,20
08.03.2024;12:45;14,30
08.03.2024;12:30;14,30
08.03.2024;12:15;14,30
08.03.2024;12:00;14,30
08.03.2024;11:45;14,40
08.03.2024;11:30;14,40
08.03.2024;11:15;14,40
08.03.2024;11:00;14,40
08.03.2024;10:45;14,40
08.03.2024;10:30;14,40
08.03.2024;10:15;14,40
08.03.2024;10:00;14,70
08.03.2024;09:45;14,60
08.03.2024;09:30;14,10
08.03.2024;09:15;13,40
08.03.2024;09:00;13,30
08.03.2024;08:45;13,10
08.03.2024;08:30;13,10
08.03.2024;08:15;13,00
08.03.2024;08:00;13,00
08.03.2024;07:45;13,00
08.03.2024;07:30;12,90
08.03.2024;07:15;12,90
08.03.2024;07:00;12,90
08.03.2024;06:45;12,90
08.03.2024;06:30;12,90
08.03.2024;06:15;12,90
08.03.2024;06:00;12,90
08.03.2024;05:45;12,90
08.03.2024;05:30;12,90
08.03.2024;05:15;13,00
08.03.2024;05:00;13,00
08.03.2024;04:45;13,00
08.03.2024;04:30;12,90
08.03.2024;04:15;13,00
08.03.2024;04:00;13,00
08.03.2024;03:45;13,00
08.03.2024;03:30;12,90
08.03.2024;03:15;13,00
08.03.2024;03:00;13,00
08.03.2024;02:45;13,00
08.03.2024;02:30;13,00
08.03.2024;02:15;13,00
08.03.2024;02:00;13,00
08.03.2024;01:45;13,00
08.03.2024;01:30;13,00
08.03.2024;01:15;13,00
08.03.2024;01:00;13,00
08.03.2024;00:45;13,00
08.03.2024;00:30;13,00
08.03.2024;00:15;13,00